When you browse on this site, cookies collect data to enhance your experience and personalize the content and advertising you see.
Visit our Privacy Policy to learn more. By continuing to use the site, you agree to this use of cookies and data.

Meteo pe oră la Prägraten

Astăzi, 5 Iulie, Duminică

Timp Temperatura Precipitaţii Vânt Presiune Umiditate
00:00 +5°C° 0 mm 1 m/s 581 mmHg 93%
01:00 +5°C° 0 mm 1 m/s 581 mmHg 92%
02:00 +4°C° 0 mm 1 m/s 580 mmHg 92%
03:00 +3°C° 0 mm 2 m/s 580 mmHg 92%
04:00 +3°C° 0 mm 2 m/s 580 mmHg 92%
05:00 +5°C° 0 mm 2 m/s 581 mmHg 81%
06:00 +8°C° 0 mm 1 m/s 582 mmHg 70%
07:00 +10°C° 0 mm 1 m/s 583 mmHg 59%
08:00 +12°C° 0 mm 1 m/s 584 mmHg 52%
09:00 +14°C° 0 mm 1 m/s 585 mmHg 45%
10:00 +16°C° 0 mm 1 m/s 586 mmHg 38%
11:00 +18°C° 0 mm 1 m/s 586 mmHg 38%
12:00 +19°C° 0 mm 1 m/s 586 mmHg 38%
13:00 +20°C° 0 mm 1 m/s 586 mmHg 38%
14:00 +20°C° 0 mm 1 m/s 586 mmHg 40%
15:00 +18°C° 0 mm 2 m/s 586 mmHg 43%
16:00 +18°C° 0 mm 2 m/s 585 mmHg 45%
17:00 +17°C° 0 mm 2 m/s 585 mmHg 56%
18:00 +15°C° 0 mm 2 m/s 584 mmHg 66%
19:00 +14°C° 0 mm 1 m/s 583 mmHg 77%
20:00 +12°C° 0 mm 1 m/s 582 mmHg 83%
21:00 +10°C° 0 mm 1 m/s 582 mmHg 89%
22:00 +8°C° 0 mm 1 m/s 581 mmHg 96%
23:00 +8°C° 0 mm 1 m/s 581 mmHg 96%

Mâine, 6 Iulie, Luni

Timp Temperatura Precipitaţii Vânt Presiune Umiditate
00:00 +8°C° 0 mm 1 m/s 581 mmHg 96%
01:00 +8°C° 0 mm 1 m/s 581 mmHg 96%
02:00 +8°C° 0 mm 1 m/s 580 mmHg 96%
03:00 +8°C° 0 mm 1 m/s 580 mmHg 95%
04:00 +8°C° 0 mm 1 m/s 580 mmHg 95%
05:00 +10°C° 0 mm 1 m/s 580 mmHg 91%
06:00 +10°C° 0 mm 0 m/s 581 mmHg 88%
07:00 +11°C° 0 mm 0 m/s 581 mmHg 84%
08:00 +13°C° 0.1 mm 1 m/s 582 mmHg 80%
09:00 +14°C° 0.1 mm 1 m/s 582 mmHg 76%
10:00 +15°C° 0.1 mm 1 m/s 582 mmHg 71%
11:00 +15°C° 0.4 mm 1 m/s 582 mmHg 75%
12:00 +14°C° 0.4 mm 1 m/s 581 mmHg 78%
13:00 +14°C° 0.4 mm 1 m/s 581 mmHg 82%
14:00 +13°C° 0.9 mm 2 m/s 581 mmHg 84%
15:00 +13°C° 0.9 mm 2 m/s 580 mmHg 86%
16:00 +12°C° 0.9 mm 2 m/s 580 mmHg 88%
17:00 +10°C° 2.9 mm 2 m/s 579 mmHg 91%
18:00 +8°C° 2.9 mm 3 m/s 578 mmHg 94%
19:00 +5°C° 2.9 mm 4 m/s 578 mmHg 96%
20:00 +4°C° 4.2 mm 4 m/s 578 mmHg 97%
21:00 +3°C° 4.2 mm 4 m/s 577 mmHg 97%
22:00 0°C° 4.2 mm 4 m/s 577 mmHg 97%
23:00 0°C° 1.2 mm 4 m/s 577 mmHg 97%

Poimâine, 7 Iulie, Marţi

Timp Temperatura Precipitaţii Vânt Presiune Umiditate
00:00 -1°C° 1.2 mm 4 m/s 577 mmHg 97%
01:00 -1°C° 1.2 mm 4 m/s 577 mmHg 97%
02:00 -1°C° 0 mm 3 m/s 577 mmHg 96%
03:00 -1°C° 0 mm 3 m/s 577 mmHg 95%
04:00 -2°C° 0 mm 3 m/s 577 mmHg 94%
05:00 -1°C° 0 mm 3 m/s 578 mmHg 91%
06:00 0°C° 0 mm 3 m/s 578 mmHg 88%
07:00 +1°C° 0 mm 3 m/s 579 mmHg 85%
08:00 +3°C° 0 mm 3 m/s 580 mmHg 74%
09:00 +4°C° 0 mm 3 m/s 581 mmHg 64%
10:00 +7°C° 0 mm 3 m/s 581 mmHg 53%
11:00 +9°C° 0 mm 2 m/s 582 mmHg 48%
12:00 +10°C° 0 mm 2 m/s 582 mmHg 43%
13:00 +12°C° 0 mm 2 m/s 583 mmHg 38%
14:00 +12°C° 0 mm 2 m/s 583 mmHg 39%
15:00 +13°C° 0 mm 2 m/s 583 mmHg 39%
16:00 +13°C° 0 mm 2 m/s 583 mmHg 40%
17:00 +10°C° 0 mm 2 m/s 582 mmHg 49%
18:00 +9°C° 0 mm 2 m/s 582 mmHg 58%
19:00 +8°C° 0 mm 2 m/s 581 mmHg 68%
20:00 +7°C° 0 mm 1 m/s 580 mmHg 75%
21:00 +4°C° 0 mm 1 m/s 580 mmHg 82%
22:00 +2°C° 0 mm 1 m/s 579 mmHg 89%
23:00 +2°C° 0 mm 1 m/s 579 mmHg 88%

8 Iulie, Miercuri

Timp Temperatura Precipitaţii Vânt Presiune Umiditate
00:00 +1°C° 0 mm 0 m/s 578 mmHg 86%
01:00 +1°C° 0 mm 0 m/s 578 mmHg 84%
02:00 +1°C° 0 mm 0 m/s 578 mmHg 83%
03:00 +2°C° 0 mm 1 m/s 578 mmHg 82%
04:00 +2°C° 0 mm 1 m/s 578 mmHg 81%
05:00 +4°C° 0 mm 1 m/s 579 mmHg 73%
06:00 +6°C° 0 mm 0 m/s 581 mmHg 65%
07:00 +8°C° 0 mm 0 m/s 582 mmHg 58%
08:00 +10°C° 0 mm 0 m/s 583 mmHg 51%
09:00 +12°C° 0 mm 0 m/s 584 mmHg 44%
10:00 +15°C° 0 mm 1 m/s 585 mmHg 37%
11:00 +16°C° 0 mm 1 m/s 585 mmHg 37%
12:00 +18°C° 0 mm 1 m/s 585 mmHg 36%
13:00 +19°C° 0 mm 1 m/s 585 mmHg 35%
14:00 +17°C° 0 mm 2 m/s 585 mmHg 38%
15:00 +17°C° 0 mm 2 m/s 585 mmHg 41%
16:00 +17°C° 0 mm 2 m/s 585 mmHg 43%
17:00 +15°C° 0 mm 2 m/s 584 mmHg 54%
18:00 +14°C° 0 mm 2 m/s 583 mmHg 65%
19:00 +12°C° 0 mm 2 m/s 583 mmHg 75%
20:00 +10°C° 0 mm 1 m/s 582 mmHg 81%
21:00 +8°C° 0 mm 1 m/s 581 mmHg 87%
22:00 +5°C° 0 mm 1 m/s 580 mmHg 93%
23:00 +5°C° 0 mm 1 m/s 580 mmHg 93%

9 Iulie, Joi

Timp Temperatura Precipitaţii Vânt Presiune Umiditate
00:00 +4°C° 0 mm 0 m/s 580 mmHg 93%
01:00 +4°C° 0 mm 0 m/s 580 mmHg 93%
02:00 +4°C° 0 mm 0 m/s 580 mmHg 93%
03:00 +3°C° 0 mm 0 m/s 580 mmHg 93%
04:00 +3°C° 0 mm 0 m/s 580 mmHg 94%
05:00 +6°C° 0 mm 0 m/s 581 mmHg 89%
06:00 +8°C° 0 mm 0 m/s 582 mmHg 84%
07:00 +10°C° 0 mm 0 m/s 583 mmHg 79%
08:00 +13°C° 0 mm 1 m/s 584 mmHg 72%
09:00 +14°C° 0 mm 1 m/s 585 mmHg 65%
10:00 +16°C° 0 mm 2 m/s 585 mmHg 58%
11:00 +16°C° 0.2 mm 2 m/s 585 mmHg 57%
12:00 +17°C° 0.2 mm 2 m/s 585 mmHg 57%
13:00 +18°C° 0.2 mm 1 m/s 585 mmHg 56%
14:00 +18°C° 0.5 mm 1 m/s 585 mmHg 59%
15:00 +16°C° 0.5 mm 1 m/s 584 mmHg 61%
16:00 +16°C° 0.5 mm 1 m/s 584 mmHg 63%
17:00 +15°C° 0.6 mm 1 m/s 584 mmHg 70%
18:00 +14°C° 0.6 mm 1 m/s 583 mmHg 76%
19:00 +13°C° 0.6 mm 1 m/s 583 mmHg 83%
20:00 +11°C° 0.2 mm 1 m/s 582 mmHg 86%
21:00 +9°C° 0.2 mm 1 m/s 581 mmHg 89%
22:00 +8°C° 0.2 mm 1 m/s 581 mmHg 92%
23:00 +7°C° 0.2 mm 1 m/s 580 mmHg 93%

10 Iulie, Vineri

Timp Temperatura Precipitaţii Vânt Presiune Umiditate
00:00 +7°C° 0.2 mm 1 m/s 580 mmHg 93%
01:00 +6°C° 0.2 mm 1 m/s 580 mmHg 93%
02:00 +6°C° 0 mm 1 m/s 579 mmHg 93%
03:00 +5°C° 0 mm 0 m/s 579 mmHg 93%
04:00 +5°C° 0 mm 0 m/s 579 mmHg 93%
05:00 +7°C° 0.1 mm 0 m/s 580 mmHg 89%
06:00 +9°C° 0.1 mm 0 m/s 581 mmHg 84%
07:00 +11°C° 0.1 mm 0 m/s 582 mmHg 80%
08:00 +12°C° 0.6 mm 0 m/s 582 mmHg 74%
09:00 +14°C° 0.6 mm 1 m/s 583 mmHg 69%
10:00 +15°C° 0.6 mm 1 m/s 583 mmHg 63%
11:00 +16°C° 0.7 mm 1 m/s 583 mmHg 59%
12:00 +17°C° 0.7 mm 2 m/s 583 mmHg 54%
13:00 +17°C° 0.7 mm 2 m/s 583 mmHg 50%
14:00 +17°C° 0.5 mm 2 m/s 583 mmHg 52%
15:00 +17°C° 0.5 mm 2 m/s 583 mmHg 55%
16:00 +17°C° 0.5 mm 2 m/s 583 mmHg 58%
17:00 +15°C° 0.6 mm 2 m/s 582 mmHg 67%
18:00 +14°C° 0.6 mm 1 m/s 582 mmHg 77%
19:00 +12°C° 0.6 mm 1 m/s 581 mmHg 86%
20:00 +11°C° 0.6 mm 1 m/s 581 mmHg 89%
21:00 +10°C° 0.6 mm 1 m/s 581 mmHg 91%
22:00 +10°C° 0.6 mm 1 m/s 581 mmHg 94%
23:00 +9°C° 0.6 mm 1 m/s 581 mmHg 94%
Arată mai mult